Location: Unspecified
(50.3330°N, 0.0000°E)
Time: 03:28:56
(UTC+00:00)

BEESAT - Visible Passes

Search period start: 04 April 2026 00:00
Search period end: 14 April 2026 00:00
Orbit: 684 x 693 km, 98.4° (Epoch: 29 March)

Date Brightness Start Highest point End Pass type
(mag) Time Alt. Az. Time Alt. Az. Time Alt. Az.
4 Apr ? 01:28:54 10° NNW 01:30:51 15° NW 01:30:51 15° NW visible
4 Apr ? 22:51:17 10° NE 22:52:29 16° NE 22:52:29 16° NE visible
5 Apr ? 00:28:30 10° N 00:31:05 29° NNW 00:31:05 29° NNW visible
5 Apr ? 23:29:09 10° NNE 23:31:19 27° NNE 23:31:19 27° NNE visible
6 Apr ? 01:07:21 10° N 01:09:54 20° NW 01:09:54 20° NW visible
6 Apr ? 22:30:54 10° NE 22:31:32 12° NE 22:31:32 12° NE visible
7 Apr ? 00:07:26 10° N 00:10:08 34° N 00:10:08 34° N visible
7 Apr ? 01:47:14 10° NW 01:48:35 11° NW 01:48:43 11° NW visible
7 Apr ? 23:08:23 10° NNE 23:10:21 23° NE 23:10:21 23° NE visible
8 Apr ? 00:46:03 10° N 00:48:56 27° NW 00:48:56 27° NW visible
8 Apr ? 23:46:27 10° NNE 23:49:10 35° NNE 23:49:10 35° NNE visible
9 Apr ? 01:25:09 10° NNW 01:27:45 16° NW 01:27:45 16° NW visible
9 Apr ? 22:47:46 10° NE 22:49:23 18° NE 22:49:23 18° NE visible
10 Apr ? 00:24:52 10° N 00:27:58 35° NNW 00:27:58 35° NNW visible
10 Apr ? 23:25:34 10° NNE 23:28:11 32° NE 23:28:11 32° NE visible
11 Apr ? 01:03:39 10° N 01:06:46 22° NW 01:06:46 22° NW visible
11 Apr ? 22:27:26 10° NE 22:28:24 13° ENE 22:28:24 13° ENE visible
12 Apr ? 00:03:47 10° N 00:06:59 42° N 00:06:59 42° N visible
12 Apr ? 01:43:16 10° NNW 01:45:03 12° NW 01:45:34 12° WNW visible
12 Apr ? 23:04:48 10° NNE 23:07:12 25° NE 23:07:12 25° NE visible
13 Apr ? 00:42:21 10° N 00:45:47 31° NW 00:45:47 31° NW visible
13 Apr ? 23:42:48 10° NNE 23:46:00 43° NNE 23:46:00 43° NNE visible
